CAPE
221 154 114 70 0 0 0 0 1 2 0 3 15 53 14 4 1 40 56 57 30 22 42 28 21 6 16 0 0 0 0 0
188 110 61 48 0 0 0 0 4 0 0 0 0 6 19 18 2 30 40 15 12 8 35 36 70 42 36 4 0 0 0 0
213 115 66 47 0 0 0 0 0 0 0 0 0 0 2 63 14 8 27 2 0 0 7 21 45 39 52 24 0 0 0 0
221 151 50 13 0 0 0 0 0 0 2 1 0 0 1 4 45 4 8 0 0 0 0 1 25 20 17 3 1 1 0 0
225 132 40 7 0 0 0 0 0 1 3 0 3 3 1 1 0 2 3 0 0 0 0 0 8 12 1 0 0 2 7 10
160 149 39 0 0 0 0 0 0 0 1 0 0 0 1 1 7 2 2 1 0 0 0 0 0 0 0 0 7 24 34 28
141 133 18 0 0 0 0 1 0 0 2 2 0 0 1 0 5 1 1 2 1 0 0 0 0 3 3 2 23 44 38 38
132 157 85 0 0 0 0 0 0 0 1 2 0 0 1 0 1 1 1 1 1 0 0 0 0 2 4 1 13 27 17 48
183 127 53 0 0 0 0 0 0 0 2 1 0 0 0 1 0 1 1 1 1 1 0 0 0 1 5 20 18 7 25 37
216 83 35 0 0 0 0 0 0 0 1 0 0 0 0 1 1 0 1 1 2 1 0 0 0 0 10 4 8 3 10 28
203 95 34 4 0 0 0 0 0 0 0 1 0 0 0 0 0 0 0 1 0 0 0 0 0 2 6 5 1 3 1 0
247 145 79 22 0 0 0 0 0 0 1 0 0 0 0 0 0 0 0 0 0 3 1 0 3 0 0 1 0 0 19 15
274 277 138 46 9 0 0 0 0 0 0 0 0 0 0 0 0 0 0 0 0 0 0 0 0 0 0 0 0 0 5 0
53 336 247 171 71 8 0 0 0 0 0 1 3 0 0 0 0 0 0 0 0 0 0 0 0 0 0 0 0 0 0 6
0 273 250 236 123 77 31 3 0 0 0 0 0 0 0 0 0 0 0 0 0 0 0 2 8 3 0 0 4 6 7 0
0 0 41 255 132 84 53 30 11 0 0 0 0 0 0 0 0 0 0 0 0 0 0 5 7 1 1 0 7 5 0 0
0 0 0 27 265 141 96 73 31 15 5 1 0 0 0 0 0 0 0 1 3 0 0 0 0 0 0 0 0 0 0 6
1 0 0 0 194 220 143 98 62 31 25 16 3 13 10 2 0 0 0 0 0 0 0 0 0 5 5 1 0 2 8 7
7 8 1 19 173 163 100 89 68 44 31 33 38 48 38 31 23 0 0 1 4 6 9 10 10 10 11 11 10 7 6 4
CIN
-139 -203 -319 -390 0 0 0 0 -14 -3 0 -11 -4 -7 -44 -66 -16 -7 -8 -44 -53 -81 -63 -78 -52 -103 -57 0 0 0 0 0
-228 -272 -359 -453 0 0 0 -1 -3 0 0 0 0 -3 0 -25 -93 -49 -20 -44 -61 -47 -58 -53 -43 -58 -58 -18 0 0 0 0
-245 -328 -382 -456 0 0 0 0 -2 0 0 0 0 0 -6 -1 -32 -60 -43 -26 0 0 -54 -42 -41 -38 -47 -34 -2 0 0 0
-245 -338 -440 -448 0 0 0 0 -3 0 -5 -8 -2 0 -3 -8 -2 -22 -12 -28 0 0 0 -29 -49 -52 -35 -27 -50 -31 0 0
-226 -353 -455 -402 0 0 0 -3 0 -2 -5 -4 -1 0 0 0 -9 0 -20 0 0 0 0 0 -69 -49 -17 0 0 -72 -52 -53
-218 -307 -446 0 0 0 0 -1 -2 -1 -2 -2 -2 -2 0 0 -2 0 0 0 0 0 0 0 -1 0 0 0 -49 -24 -37 -33
-246 -397 -485 0 0 0 0 -4 -3 0 -1 -1 -3 0 0 0 -12 0 0 0 0 0 0 0 0 -56 -43 -14 -30 -35 -38 -29
-265 -355 -413 0 0 0 0 -4 -1 -1 0 -1 0 0 0 0 0 0 0 0 0 0 0 0 0 -62 -57 -27 -37 -25 -26 -24
-232 -295 -412 0 0 0 0 0 -5 -3 -3 -2 0 0 0 0 0 0 0 0 0 0 0 0 0 -5 -51 -30 -31 -40 -33 -22
-211 -311 -371 0 0 0 0 0 -2 -4 -4 -2 0 0 0 0 0 0 0 0 0 0 0 0 0 -36 -17 -27 -33 -44 -34 -20
-183 -254 -339 -345 0 0 0 0 -1 -6 -2 -1 0 0 -11 0 0 0 0 0 0 0 0 0 0 -6 -11 -16 -15 -37 -16 0
-128 -202 -297 -396 0 0 0 0 0 -3 -3 0 0 0 0 0 0 0 0 0 0 0 0 0 0 0 0 -26 0 -5 -23 -35
-103 -154 -247 -360 -402 0 0 0 0 0 -5 -7 0 0 0 0 0 0 0 0 0 0 0 0 0 -1 -2 0 0 0 -48 -31
-21 -118 -183 -286 -356 -438 0 0 0 0 -1 -3 -12 -16 0 0 0 0 0 0 0 0 0 0 0 0 0 0 0 0 -9 -37
0 -105 -141 -257 -315 -375 -395 -200 0 0 0 0 -1 0 0 0 0 0 0 0 0 0 0 -23 -31 -35 0 0 -43 -41 -36 -8
0 0 -110 -184 -245 -320 -358 -359 -388 -65 0 0 0 0 0 0 0 0 0 0 0 0 -5 -54 -31 -7 -7 0 -30 -37 0 0
0 0 0 -13 -187 -262 -341 -340 -366 -384 -389 -281 0 0 0 0 0 0 -2 -10 -10 0 0 0 0 0 0 0 0 0 0 0
-38 0 0 0 -80 -205 -290 -351 -335 -346 -359 -354 -241 -323 -313 -205 -68 0 -7 0 0 0 0 0 0 0 0 0 0 0 0 0
-348 -238 -101 -86 -67 -101 -238 -298 -316 -299 -313 -309 -293 -278 -259 -214 -81 0 0 0 0 0 0 0 0 0 0 0 0 0 0 0
Wind_Speed
4 3 4 6 8 9 11 11 9 8 7 6 4 5 10 18 18 16 24 19 18 19 18 17 16 17 17 16 14 11 7 6
4 3 3 5 7 9 10 10 10 9 6 4 2 2 5 15 20 15 17 19 19 19 21 17 18 17 17 16 15 11 8 6
7 4 2 3 6 8 9 9 10 8 7 3 4 3 4 9 14 19 19 20 19 22 22 20 18 17 16 15 14 10 10 7
8 6 4 2 4 6 8 9 10 8 7 3 6 3 5 10 13 20 22 22 22 22 23 20 19 17 16 13 14 10 10 10
9 7 5 2 3 5 7 9 11 11 10 5 4 5 7 8 19 19 25 26 24 23 22 21 18 18 17 12 10 10 10 11
13 11 7 4 3 5 7 8 9 10 10 8 6 5 3 6 11 14 26 25 27 25 23 20 18 16 17 15 12 13 13 10
12 8 6 3 3 5 7 8 9 9 10 11 10 10 10 10 14 17 25 26 23 27 23 20 17 14 13 13 12 12 14 15
11 9 7 4 6 5 7 8 10 11 11 11 13 14 11 13 12 21 14 20 22 24 25 20 18 17 15 16 12 13 14 14
11 10 7 6 7 6 6 7 9 11 12 11 13 15 16 15 16 21 21 11 19 21 19 19 17 17 16 15 13 15 18 11
8 8 6 8 8 8 7 8 9 11 12 12 14 15 17 18 15 14 18 18 11 14 15 16 13 12 12 11 12 14 16 21
9 8 8 7 8 7 7 10 10 11 13 14 15 16 16 17 18 18 13 10 18 21 22 19 15 10 11 11 13 12 25 30
10 8 7 8 8 8 9 11 10 11 12 15 13 14 14 17 18 19 19 19 22 25 26 25 25 20 20 18 18 13 11 11
10 9 7 8 9 9 11 11 10 10 12 12 13 11 12 14 14 18 20 20 18 19 20 21 20 20 15 12 12 9 10 11
26 9 8 9 9 10 10 9 8 10 12 12 12 13 9 11 13 14 13 13 14 11 12 14 13 11 11 11 10 10 11 15
13 16 8 8 9 9 9 9 8 10 11 12 12 13 11 8 9 11 13 9 9 8 7 8 8 9 11 10 12 14 16 22
20 16 24 8 10 9 9 10 9 10 11 11 12 10 12 10 7 6 6 6 5 6 4 4 3 8 14 14 13 17 17 18
26 24 18 28 11 11 10 11 12 11 11 10 10 10 11 11 12 9 5 4 4 7 9 8 10 14 15 11 12 15 15 16
29 27 31 30 39 11 11 10 10 11 10 10 9 10 10 10 10 10 8 5 6 6 7 8 10 13 12 10 11 12 13 14
25 26 25 12 11 17 10 10 11 10 9 9 10 11 10 8 4 1 1 0 2 4 6 8 9 12 11 10 9 10 12 14
Wind_Direction
216 146 71 41 36 39 40 49 72 81 59 349 330 110 127 141 150 198 214 185 193 205 205 188 199 191 204 216 219 207 198 167
209 151 96 19 37 39 44 71 91 89 73 70 344 273 163 159 166 183 198 212 200 207 211 195 203 194 200 206 213 199 210 204
219 172 137 15 43 47 55 91 101 106 109 68 327 161 201 185 187 189 198 208 205 216 204 203 193 200 184 192 194 204 227 214
221 184 168 42 44 54 74 101 109 98 100 46 332 337 296 204 218 208 205 210 207 205 208 206 194 192 194 183 185 201 210 247
213 185 178 155 80 69 80 97 110 111 105 75 88 145 160 186 200 205 211 212 205 205 207 204 201 193 191 192 202 213 229 233
204 188 182 152 102 86 92 101 107 111 119 105 49 74 43 137 175 206 209 201 211 206 214 204 209 206 208 215 220 237 248 245
197 189 167 153 112 99 94 104 110 108 114 116 76 87 89 76 131 162 223 210 207 212 211 208 217 215 208 224 241 247 253 259
196 181 171 149 142 120 101 107 105 111 114 113 100 90 93 88 106 138 168 213 207 208 211 211 230 238 242 251 242 239 244 256
182 173 182 170 152 133 117 111 102 106 112 104 113 105 103 99 108 125 135 193 220 211 213 224 237 242 244 246 241 247 257 241
182 174 178 165 155 146 133 123 111 110 110 105 112 114 112 109 108 116 133 141 213 208 207 222 216 227 216 212 237 245 256 258
190 173 173 170 159 151 138 135 121 116 118 119 121 122 119 123 122 124 125 133 141 149 158 164 175 195 190 216 246 232 192 207
203 191 172 174 163 153 146 143 134 124 122 125 119 122 122 126 133 132 130 135 145 155 161 164 169 168 172 178 181 192 210 216
216 210 185 182 171 161 151 149 143 134 129 124 123 118 121 125 124 134 139 138 136 147 155 164 169 174 179 188 197 236 229 252
234 202 189 177 180 173 163 156 152 141 134 130 127 130 126 131 134 136 137 138 142 145 155 165 177 194 208 215 224 244 252 277
320 254 200 197 188 185 181 170 164 155 146 142 139 139 137 138 140 146 153 147 147 151 162 168 179 194 207 232 259 273 281 292
300 314 264 215 217 199 189 179 179 170 160 155 155 144 142 144 148 152 159 173 178 172 186 186 239 284 283 281 284 290 293 299
287 285 306 262 209 201 194 187 184 179 173 165 157 157 159 151 152 160 169 178 218 269 282 284 297 300 298 292 294 298 303 306
283 271 264 285 234 198 199 191 190 186 183 177 165 159 159 159 155 155 162 254 277 282 295 298 304 311 313 312 311 312 318 320
293 289 289 272 175 240 216 196 187 192 197 183 169 164 158 152 159 172 147 59 313 310 310 314 319 321 331 336 340 336 336 336